This is the latest recevied weather packets stored in our database for station/object KE7JVX-3. If no packets are shown the sender has not sent any weather packets the latest 1 day(s).
| Time | Temp. | Humidity | Pressure | Rain* | Wind** | Luminosity | Snow |
|---|---|---|---|---|---|---|---|
| 1778063068 | 0.56° C | 57% | 1008.9 hPa | 0 mm | 4.92 m/s, 302° | - | - |
| 1778062470 | 0.56° C | 57% | 1008.9 hPa | 0 mm | 5.36 m/s, 298° | - | - |
| 1778061868 | 0.56° C | 57% | 1008.8 hPa | 0 mm | 4.92 m/s, 293° | - | - |
| 1778061390 | 0.56° C | 57% | 1008.7 hPa | 0 mm | 6.71 m/s, 287° | - | - |
| 1778061268 | 0.56° C | 57% | 1008.7 hPa | 0 mm | 6.71 m/s, 287° | - | - |
| 1778060668 | 0.56° C | 57% | 1008.7 hPa | 0 mm | 5.81 m/s, 291° | - | - |
| 1778060070 | 0.56° C | 58% | 1008.6 hPa | 0 mm | 5.81 m/s, 279° | - | - |
| 1778059571 | 0.56° C | 59% | 1008.6 hPa | 0 mm | 7.15 m/s, 286° | - | - |
| 1778059468 | 0.56° C | 59% | 1008.6 hPa | 0 mm | 7.15 m/s, 286° | - | - |
| 1778059084 | 0.56° C | 59% | 1008.7 hPa | 0 mm | 6.26 m/s, 284° | - | - |
| 1778058868 | 0.56° C | 59% | 1008.7 hPa | 0 mm | 6.26 m/s, 284° | - | - |
| 1778058440 | 0.56° C | 59% | 1008.7 hPa | 0 mm | 6.26 m/s, 287° | - | - |
| 1778058268 | 0.56° C | 59% | 1008.7 hPa | 0 mm | 6.26 m/s, 287° | - | - |
| 1778057668 | 0.56° C | 60% | 1008.6 hPa | 0 mm | 5.36 m/s, 290° | - | - |
| 1778057229 | 0.56° C | 60% | 1008.7 hPa | 0 mm | 4.02 m/s, 287° | - | - |
| 1778057068 | 0.56° C | 60% | 1008.7 hPa | 0 mm | 4.02 m/s, 287° | - | - |
| 1778056468 | 0.56° C | 59% | 1008.8 hPa | 0 mm | 4.92 m/s, 297° | - | - |
| 1778055868 | 0.56° C | 58% | 1008.8 hPa | 0 mm | 4.92 m/s, 290° | - | - |
| 1778055631 | 0.56° C | 56% | 1008.9 hPa | 0 mm | 4.92 m/s, 291° | - | - |
| 1778055268 | 0.56° C | 56% | 1008.9 hPa | 0 mm | 4.92 m/s, 291° | - | - |
| 1778054668 | 0.56° C | 56% | 1008.9 hPa | 0 mm | 4.02 m/s, 287° | - | - |
| 1778054068 | 0.56° C | 56% | 1008.9 hPa | 0 mm | 4.92 m/s, 292° | - | - |
| 1778053468 | 0.56° C | 54% | 1009.1 hPa | 0 mm | 3.58 m/s, 281° | - | - |
| 1778052868 | 0.56° C | 53% | 1009 hPa | 0 mm | 5.81 m/s, 292° | - | - |
| 1778052268 | 1.11° C | 51% | 1009.1 hPa | 0 mm | 5.81 m/s, 293° | - | - |
* Rain latest hour (hover to see other rain measurements)
** Current wind speed in m/s (hover to see current wind gust speed)